Terug naar catalogus

STARLINK-33687

ActiefCommunicatieVLEO
NORAD 63485·PAYLOAD·🇺🇸 United States

Gelanceerd Apr 6, 2025 vanaf Cape Canaveral Space Force Station

Loading…

Volgende Passages (komende 24 uur)

TLE

VersSource: CelesTrak SupGP

Epoch: Sep 14, 2026, 20:48 UTC

1 63485C 25070AB  26257.86715278  .00013536  00000+0  49048-3 0  2578
2 63485  43.0009 271.1164 0001387 265.1017  17.8711 15.27558293    10

Volg STARLINK-33687 in realtime met AllMySat

Download on the App Store